Location: LDNL
(36.4545°S, 141.6685°E)
Time: 04:08:15
(UTC+11:00)

A-11 Canister half - Pass Details

Date: 17 August 2022
Orbit: 1524 x 1684 km, 47.3° (Epoch: 05 October)

Event Time Altitude Azimuth Distance (km) Brightness Sun altitude
Rises 15:17:53 0° 323° (NW) 4,748 12.8 27.4°
Reaches altitude 10° 15:21:02 10° 326° (NW) 3,749 12.7 27.0°
Maximum altitude 15:30:15 60° 43° (NE) 1,735 9.7 25.6°
Drops below altitude 10° 15:39:21 10° 119° (ESE) 3,709 10.5 24.3°
Sets 15:42:26 0° 122° (ESE) 4,694 11.0 23.8°
